Powrót do katalogu

STARLINK-36286

AktywnyŁącznośćVLEO
NORAD 69162·PAYLOAD·🇺🇸 United States

Wystrzelony May 21, 2026 z Cape Canaveral Space Force Station

Loading…

Następne Przeloty (najbliższe 24 godziny)

TLE

ŚwieżeSource: CelesTrak SupGP

Epoka: Sep 15, 2026, 02:58 UTC

1 69162C 26111Q   26258.12409722 -.00015077  00000+0 -44566-3 0  2582
2 69162  53.1580  90.8793 0001432  92.4194 248.0860 15.34383268    15

Śledź STARLINK-36286 w czasie rzeczywistym z AllMySat

Download on the App Store